SCP
-0 -0 0 0 0 0 0 0 0 0 0 0 0 0 0 0 0 0 0 0 0 0 0 0 0 0 0 0 0 0 0 0 0 0 0 0 0 0 0 0 0 0 0
-0 -0 0 0 0 0 0 0 0 0 0 0 0 0 0 0 0 0 0 0 0 0 0 0 0 0 0 0 0 0 0 0 0 0 0 0 0 0 0 0 0 0 0
-0 -0 -0 0 0 0 0 0 0 0 0 0 0 0 0 0 0 0 0 0 0 0 0 0 0 0 0 0 0 0 0 0 0 0 0 0 0 0 0 0 0 0 0
0 -0 -0 -0 -0 0 0 0 0 0 0 0 0 0 0 0 0 0 0 0 0 0 0 0 0 0 0 0 0 0 0 0 0 0 0 0 0 0 0 0 0 0 0
0 0 0 -0 -0 0 0 0 0 0 0 0 0 0 0 0 0 0 0 0 0 0 0 0 0 0 0 0 0 0 0 0 0 0 0 0 0 0 0 0 0 0 0
0 0 0 0 0 0 0 0 0 0 0 0 0 0 0 0 0 0 0 0 0 0 0 0 0 0 0 0 0 0 0 0 0 0 0 0 0 0 0 0 0 0 0
0 0 0 0 0 0 0 0 0 0 0 0 0 0 0 0 0 0 0 0 0 0 0 0 0 0 0 0 0 0 0 0 0 0 0 0 0 0 -0 -0 0 0 0
0 0 0 0 0 0 0 0 0 0 0 0 0 0 0 0 0 0 0 0 0 0 0 0 0 0 0 0 0 0 0 0 0 0 0 0 0 -0 -0 0 0 0 0
0 0 0 0 0 0 0 0 0 0 0 0 0 0 0 0 0 0 0 0 0 0 0 0 0 0 0 0 0 0 0 0 0 0 0 0 0 -0 -0 0 0 0 0
0 0 0 0 0 0 0 0 0 0 0 0 0 0 0 0 0 0 0 0 0 0 0 0 0 0 0 0 0 0 0 0 0 0 0 0 0 0 0 -0 -0 -0 -0
0 0 0 0 0 0 0 0 0 0 0 0 0 0 0 0 0 0 0 0 0 0 0 0 0 0 0 0 0 0 0 0 0 0 0 0 0 0 0 -0 -0 -0 -0
0 0 0 0 0 0 0 0 0 0 0 0 0 0 0 0 0 0 -0 -0 0 0 0 0 0 0 0 0 0 0 0 0 0 0 0 0 0 0 -0 -0 -0 -0 -0
0 0 0 0 0 0 0 0 0 0 0 0 0 0 0 0 0 0 0 0 0 0 0 0 0 0 0 0 0 0 0 0 0 0 0 0 0 0 -0 -0 -0 -0 -0
0 0 0 0 0 0 0 0 0 0 0 0 0 0 0 0 0 0 0 0 0 0 0 0 0 0 0 0 0 0 0 0 0 -0 -0 0 0 -0 -0 -0 -0 -0 -0
0 0 0 0 0 0 -0 0 0 0 0 0 0 0 0 0 0 0 0 0 0 0 0 0 0 0 0 0 0 0 0 0 0 0 0 0 0 -0 -0 -0 -0 -0 -0
0 0 0 0 0 0 -0 0 0 0 0 -0 0 0 0 0 0 0 0 0 0 0 0 0 0 0 0 0 0 0 0 -0 -0 0 0 0 0 -0 -0 0 0 0 0
0 0 0 0 0 0 -0 -0 -0 -0 0 0 0 0 0 0 0 0 0 0 0 0 0 0 0 0 0 0 0 0 0 0 0 0 0 0 0 -0 -0 0 0 0 -0
0 0 0 0 0 0 0 -0 -0 -0 0 0 0 0 0 0 0 0 0 0 0 0 0 0 0 0 0 0 0 0 0 0 0 0 0 0 0 -0 0 0 0 -0 -0
0 0 0 0 0 0 0 -0 -0 -0 0 0 0 0 0 0 0 0 0 0 0 0 0 0 0 0 0 0 0 0 0 0 0 0 0 0 0 0 0 0 0 0 0
0 0 0 0 0 0 0 -0 -0 -0 0 0 0 0 0 0 0 0 0 0 0 0 0 0 0 0 0 -0 -0 0 0 0 0 0 0 0 0 0 0 0 0 0 0
0 0 0 0 0 0 0 0 0 0 0 0 0 0 0 0 0 0 0 0 0 0 0 0 0 -0 -0 -0 -0 0 0 0 0 0 0 0 0 0 0 0 0 0 0
0 0 0 0 0 0 0 0 0 0 0 0 0 0 0 0 0 0 0 0 0 0 0 0 -0 -0 0 0 0 0 0 0 0 0 0 0 0 0 0 0 0 -0 -0
0 0 0 0 0 0 0 0 0 0 0 0 0 0 0 0 0 0 0 0 0 0 -0 -0 -0 -0 -0 -0 0 0 0 -0 -0 -0 0 0 0 0 0 0 0 -0 -0
0 0 0 0 0 0 0 0 0 0 0 0 0 0 0 0 0 0 0 0 0 -0 -0 -0 -0 -0 0 0 0 0 0 0 0 0 0 0 0 0 0 0 -0 -0 -0
0 0 0 0 -0 -0 0 0 0 0 0 0 0 0 0 0 0 0 0 0 0 0 0 -0 -0 0 0 0 0 0 0 0 0 0 0 0 0 0 0 0 0 0 0
0 0 0 0 0 -0 0 0 0 0 0 0 0 0 0 0 0 0 0 0 0 0 0 0 0 0 0 0 0 0 0 0 0 0 0 0 0 0 0 0 0 0 0
Wind_Speed
4 4 5 5 5 5 5 5 5 5 6 6 6 5 6 6 6 5 4 4 4 4 3 2 1 1 0 1 2 2 2 3 5 4 4 5 6 6 6 6 5 5 6
3 4 4 4 5 5 5 5 5 5 6 6 5 6 6 6 6 6 6 6 5 5 5 3 3 1 1 1 2 3 3 3 6 9 5 5 6 6 6 6 5 5 4
3 4 4 5 5 5 5 5 5 5 6 6 6 6 6 6 6 6 6 6 6 6 5 5 4 3 2 2 3 3 4 6 6 9 7 5 4 5 6 6 5 4 4
3 4 4 4 4 4 4 5 5 5 6 6 6 6 6 6 6 6 6 6 6 6 5 5 4 3 3 3 3 5 6 8 8 9 8 6 5 5 5 5 4 3 2
3 4 3 3 4 4 4 5 5 6 6 5 6 6 6 5 6 6 5 6 6 6 7 6 5 6 6 4 4 5 7 7 7 8 8 6 5 5 4 3 4 3 2
3 3 3 4 4 5 5 5 6 6 6 6 6 6 7 6 8 9 7 6 6 7 7 6 6 7 9 9 9 8 8 9 9 7 7 7 6 5 4 5 4 3 2
3 3 3 4 4 4 5 6 6 5 6 6 7 6 7 7 10 10 10 7 7 7 7 6 6 6 7 7 10 11 10 8 7 7 9 7 7 6 6 5 4 3 2
3 3 3 3 4 4 5 5 5 4 5 5 6 6 6 8 10 10 9 8 8 8 7 7 6 7 6 7 9 9 9 8 6 5 6 6 5 5 5 5 5 4 3
2 2 2 3 3 4 5 5 4 4 5 5 4 6 6 7 9 9 8 6 7 8 8 8 7 7 8 9 10 10 10 8 10 11 9 8 7 7 6 5 5 4 3
2 2 2 3 3 3 3 3 3 3 4 4 6 6 6 6 9 9 7 5 6 6 7 8 10 9 9 9 8 9 9 7 7 8 9 8 7 6 5 4 4 4 2
3 3 3 3 3 3 3 3 3 3 4 5 6 6 6 7 8 10 9 5 4 5 5 5 6 10 11 11 9 7 7 7 7 7 6 5 5 4 3 2 2 2 2
4 4 4 3 3 3 3 3 3 4 5 5 5 5 5 6 7 8 9 8 5 5 4 4 4 9 11 10 8 9 9 7 5 5 5 4 3 3 2 1 1 1 1
5 4 4 4 4 3 3 3 3 3 3 3 3 4 4 4 5 8 9 9 8 5 4 6 7 9 9 8 10 9 7 5 5 5 4 3 2 1 1 1 2 1 0
5 4 3 4 4 4 3 2 2 2 2 2 2 2 3 3 4 4 4 4 6 5 4 6 8 10 8 7 7 6 5 4 4 3 3 2 1 2 2 2 2 2 2
4 3 3 3 3 3 3 3 2 1 0 1 1 1 2 2 3 4 3 3 3 2 3 4 4 4 5 5 4 4 4 4 4 2 2 2 2 2 2 2 2 1 1
4 3 2 2 2 2 2 3 6 4 4 3 2 1 1 1 2 4 5 5 4 4 5 4 3 3 3 3 3 3 3 3 3 2 2 2 2 2 2 2 2 1 1
4 3 2 2 2 1 1 2 2 4 5 5 4 3 2 3 3 4 5 5 5 5 4 2 2 2 2 2 2 2 2 2 1 2 2 1 1 1 1 1 1 1 1
3 3 2 1 1 1 1 1 1 1 1 2 3 4 4 3 4 4 4 3 4 3 2 1 1 1 1 1 1 1 1 1 1 1 1 1 1 1 1 1 1 1 2
3 2 2 1 1 1 1 1 1 0 0 1 2 3 3 3 3 4 3 2 1 1 1 1 0 0 0 0 0 0 0 0 1 0 0 0 0 0 0 1 1 1 2
2 3 3 2 1 1 1 1 1 1 1 1 1 2 2 1 1 2 1 0 0 1 1 1 1 1 1 1 1 1 0 0 0 0 0 0 1 1 1 1 2 2 2
2 2 2 2 1 1 1 1 1 1 2 2 2 2 2 1 2 2 1 2 2 2 2 2 1 1 1 1 1 1 1 1 1 1 1 1 1 1 2 2 2 2 3
3 2 2 2 1 1 2 2 2 2 3 3 2 2 3 2 2 2 3 3 3 3 3 2 2 2 2 2 2 2 2 2 2 2 2 2 2 2 2 2 3 3 3
3 3 2 2 2 2 2 2 2 3 3 3 3 2 2 3 3 3 4 3 3 3 3 3 3 3 3 3 3 3 4 4 4 3 3 3 3 3 3 3 4 5 5
3 3 3 2 2 2 2 2 3 3 3 3 3 3 4 4 4 4 4 4 3 3 3 3 4 6 6 4 3 4 4 5 4 4 5 4 4 4 4 4 5 6 6
4 3 3 3 3 3 3 3 3 3 3 4 4 4 4 4 4 5 4 4 4 5 5 5 4 5 7 8 7 6 6 7 6 4 4 4 5 5 6 6 6 7 7
4 4 4 3 3 3 3 3 4 4 4 4 4 4 4 5 5 5 5 4 5 5 5 5 7 8 9 7 8 8 7 7 7 6 5 5 6 6 6 6 8 8 9
Wind_Direction
41 39 38 29 25 28 27 14 7 6 8 10 8 12 14 14 12 15 14 10 8 1 354 352 342 323 217 164 149 142 137 134 135 115 103 109 103 106 103 95 94 92 103
44 45 40 33 30 30 21 11 8 10 9 10 11 18 19 19 17 20 20 19 19 11 3 15 18 41 59 96 125 129 132 131 134 128 118 109 104 111 108 104 99 101 101
47 48 41 35 33 27 17 10 10 12 13 16 21 22 20 21 22 22 25 25 26 21 15 20 23 46 62 87 109 120 122 119 119 124 123 114 106 112 109 103 97 90 105
55 53 43 32 30 25 18 16 14 15 19 20 23 22 22 25 26 26 30 29 30 29 24 26 33 51 70 94 108 118 119 118 121 123 123 120 113 112 115 116 108 94 101
67 58 43 33 35 35 30 23 21 23 24 22 29 28 25 28 26 27 33 36 35 36 34 34 46 65 72 81 109 121 125 124 124 125 126 124 126 132 129 129 123 111 92
75 62 51 46 43 39 32 28 28 26 23 29 31 31 31 31 32 35 40 41 39 40 37 37 48 56 69 76 88 103 126 134 135 133 132 136 138 137 132 134 130 130 124
81 71 57 57 52 40 37 35 29 24 30 31 27 31 33 26 35 41 45 49 45 39 35 36 49 53 64 82 82 81 85 99 123 135 136 141 145 152 143 134 135 128 121
84 75 66 64 57 46 42 35 25 24 31 29 26 27 35 27 33 44 49 52 49 41 36 37 51 51 63 85 89 82 76 74 89 106 122 133 138 143 140 133 128 112 93
82 75 72 76 70 57 44 31 22 30 36 33 28 29 35 25 31 42 51 55 50 40 34 36 47 59 64 85 93 91 84 75 74 87 94 102 115 127 131 122 122 120 110
95 84 75 77 78 67 52 39 28 41 43 44 41 31 33 28 28 39 45 60 54 42 36 35 43 57 65 78 91 97 93 88 93 90 85 82 91 105 118 132 141 133 129
99 90 77 71 70 72 57 45 49 52 51 47 46 35 33 28 30 39 44 57 61 53 44 34 34 55 67 72 80 86 99 102 94 92 88 83 81 82 86 102 138 144 145
92 85 74 65 64 72 68 55 49 53 57 45 42 35 27 23 29 38 48 55 59 65 50 32 39 61 67 70 76 88 94 92 89 85 81 73 69 64 55 58 115 176 227
93 84 73 63 57 60 71 67 54 49 58 51 46 40 19 14 18 31 43 48 53 61 53 62 67 70 69 67 71 78 79 81 85 84 79 64 43 34 42 54 61 66 74
101 90 80 72 60 52 54 56 66 62 64 61 55 41 24 18 14 11 16 27 40 52 51 57 63 63 63 62 59 58 61 70 84 85 80 60 50 63 59 48 51 36 38
106 98 84 75 74 66 56 42 47 34 19 111 88 64 53 30 347 360 31 25 22 35 57 53 48 47 52 50 51 52 55 64 70 72 78 74 61 56 47 37 43 43 39
115 108 99 93 82 81 81 56 43 48 52 73 89 88 16 350 359 37 40 40 47 67 70 57 50 48 50 52 56 51 48 52 59 71 73 68 60 50 43 36 40 36 18
134 133 122 115 107 91 82 79 49 25 42 47 43 39 24 16 31 35 38 44 48 72 73 66 57 47 41 44 53 55 45 39 56 75 80 74 66 52 45 32 25 13 344
135 139 137 134 123 113 113 104 94 66 14 351 359 3 3 8 13 17 32 52 42 45 65 73 60 34 26 42 73 80 65 51 62 65 62 55 57 58 39 7 350 326 318
141 146 142 134 137 137 126 121 115 92 330 319 332 340 349 354 12 20 35 60 51 24 19 12 328 272 266 249 188 149 130 77 49 54 45 32 24 136 304 308 306 300 290
153 166 156 149 150 149 144 155 186 222 263 277 286 298 336 9 1 357 11 340 267 272 280 282 277 252 246 236 203 183 167 180 233 244 260 265 259 238 258 283 291 293 289
156 160 160 160 188 201 206 219 225 235 248 258 261 256 229 228 263 281 283 268 253 248 247 252 252 246 236 221 208 204 212 232 236 239 247 251 250 252 259 264 273 279 284
157 164 179 201 217 216 220 222 219 229 241 250 262 263 233 226 250 262 267 262 253 245 238 234 242 241 233 225 218 214 222 233 237 234 239 244 244 251 259 265 270 278 285
170 181 199 218 221 230 233 237 232 231 239 246 253 258 253 247 251 253 258 263 258 247 235 224 234 243 238 227 222 222 229 238 239 233 234 243 247 252 255 265 275 281 285
188 195 206 219 223 231 243 253 251 249 251 252 251 252 252 252 254 255 255 256 254 251 242 231 235 240 242 237 231 230 235 241 242 239 235 241 250 257 259 263 268 274 278
195 202 211 219 222 230 242 252 255 254 254 253 251 251 254 252 252 255 253 249 249 251 249 240 238 243 246 244 243 243 238 236 238 237 234 237 248 255 261 266 270 275 277
202 207 214 219 224 230 237 247 255 256 254 255 253 251 252 254 254 255 254 248 247 250 252 247 242 242 245 246 248 246 241 239 238 231 226 237 246 255 260 265 272 274 279